Location: ????
(30.1475°N, 31.1342°E)
Time: 02:26:40
(UTC+00:00)

CZ-2C R/B - Pass Details

Date: 27 September 2022
Orbit: 667 x 784 km, 98.3° (Epoch: 01 December)

Event Time Altitude Azimuth Distance (km) Brightness Sun altitude
Rises 01:02:05 0° 17° (NNE) 3,206 6.2 -35.6°
Reaches altitude 10° 01:04:28 10° 21° (NNE) 2,261 5.3 -35.1°
Enters shadow 01:06:36 25° 29° (NNE) 1,458 4.3 -34.7°
